SR5NLK-1 Weather Reports


Display with metric or nautical units.
time (UTC)temp
F
wind
direction
speed
MPH
gust
MPH
rain 1hr
in
rain 24hr
in
rain mn
in
humidity
%
barometer
mb
20260906110933 67 270 15.0 27.0 0.00 0.00 0.00 63 977.2
20260906110434 66 292 15.0 21.0 0.00 0.00 0.00 62 993.1
20260906105935 66 292 19.0 28.0 0.00 0.00 0.00 61 990.0
20260906105434 66 292 14.0 22.0 0.00 0.00 0.00 64 986.8
20260906104934 65 270 12.0 23.0 0.00 0.00 0.00 67 990.0
20260906104434 64 270 11.0 19.0 0.00 0.00 0.00 70 986.8
20260906103934 63 270 16.0 18.0 0.00 0.00 0.00 71 980.4
20260906103633 63 270 6.0 23.0 0.00 0.00 0.00 72 996.3
20260906103434 63 292 13.0 23.0 0.00 0.00 0.00 71 970.9
20260906102934 64 270 10.0 22.0 0.00 0.00 0.00 69 977.2
20260906102434 65 247 7.0 21.0 0.00 0.00 0.00 66 970.9
20260906101934 65 180 16.0 16.0 0.00 0.00 0.00 68 977.2
20260906101434 64 270 15.0 18.0 0.00 0.00 0.00 66 961.3
20260906100934 64 315 17.0 27.0 0.00 0.00 0.00 67 983.6
20260906100434 64 315 18.0 33.0 0.00 0.00 0.00 68 961.3
20260906100333 64 270 9.0 21.0 0.00 0.00 0.00 67 974.1
20260906095934 65 292 12.0 23.0 0.00 0.00 0.00 67 964.5
20260906095434 65 292 18.0 21.0 0.00 0.00 0.00 69 980.4
20260906094934 64 315 14.0 23.0 0.00 0.00 0.00 70 974.0
20260906094434 64 292 11.0 18.0 0.00 0.00 0.00 70 996.4
20260906093934 64 292 20.0 22.0 0.00 0.00 0.00 70 986.8
20260906093435 64 292 14.0 22.0 0.00 0.00 0.00 70 993.1
20260906093034 64 270 14.0 23.0 0.00 0.00 0.00 71 1009.0
20260906092935 64 270 20.0 23.0 0.00 0.00 0.00 70 999.5
20260906092434 64 270 15.0 23.0 0.00 0.00 0.00 72 983.6
20260906091934 63 247 15.0 18.0 0.00 0.00 0.00 72 993.2
20260906091435 63 270 15.0 23.0 0.00 0.00 0.00 73 999.5
20260906090935 62 315 7.0 19.0 0.00 0.00 0.00 75 1005.9
20260906090434 62 270 7.0 19.0 0.00 0.00 0.00 75 999.5
20260906085935 61 292 8.0 15.0 0.00 0.00 0.00 77 1021.7
20260906085734 61 270 15.0 22.0 0.00 0.00 0.00 77 999.5
20260906085435 61 292 7.0 22.0 0.00 0.00 0.00 77 1002.7
20260906084935 61 270 8.0 15.0 0.00 0.00 0.00 78 996.3
20260906084435 60 270 9.0 21.0 0.00 0.00 0.00 80 1021.7
20260906083435 59 270 6.0 18.0 0.00 0.00 0.00 82 1024.9
20260906082935 59 270 10.0 22.0 0.00 0.00 0.00 82 1058.8
20260906082434 58 270 3.0 15.0 0.00 0.00 0.00 82 1064.8
20260906081935 59 270 11.0 19.0 0.00 0.00 0.00 82 1040.6
20260906081435 58 270 6.0 19.0 0.00 0.00 0.00 83 1034.3
20260906080935 58 270 7.0 19.0 0.00 0.00 0.00 84 1034.3
20260906080435 58 292 11.0 19.0 0.00 0.00 0.00 85 1028.0
20260906075935 57 292 13.0 15.0 0.00 0.00 0.00 84 1034.3
20260906075435 57 270 8.0 17.0 0.00 0.00 0.00 84 1060.5
20260906075134 57 292 8.0 20.0 0.00 0.00 0.00 83 1034.3
20260906074935 57 270 8.0 20.0 0.00 0.00 0.00 83 1050.1
20260906074436 58 270 8.0 18.0 0.00 0.00 0.00 82 1028.0
20260906073935 58 247 11.0 21.0 0.00 0.00 0.00 81 1036.1
20260906073435 58 270 11.0 28.0 0.00 0.00 0.00 79 1054.4
20260906072935 60 270 25.0 25.0 0.00 0.00 0.00 76 1018.5
20260906072435 60 292 6.0 21.0 0.00 0.00 0.00 77 1039.2
20260906071935 59 157 4.0 19.0 0.00 0.00 0.00 78 1053.2
20260906071834 59 225 8.0 19.0 0.00 0.00 0.00 78 1031.1
20260906071436 59 292 12.0 22.0 0.00 0.00 0.00 77 1024.8
20260906071050 60 270 9.0 17.0 0.00 0.00 0.00 76 1049.6
20260906070935 60 270 9.0 17.0 0.00 0.00 0.00 76 1049.6
20260906070435 60 247 18.0 19.0 0.00 0.00 0.00 76 1040.6
20260906065935 59 270 18.0 19.0 0.00 0.00 0.00 77 1062.3
20260906065435 59 247 17.0 20.0 0.00 0.00 0.00 77 1028.0
20260906064935 59 247 5.0 17.0 0.00 0.00 0.00 77 1029.4
20260906064534 58 247 7.0 22.0 0.00 0.00 0.00 77 1037.5
20260906064435 58 270 10.0 22.0 0.00 0.00 0.00 77 1034.3
20260906063935 58 270 17.0 30.0 0.00 0.00 0.00 77 1040.6
20260906063435 59 247 8.0 21.0 0.00 0.00 0.00 76 1037.5
20260906062935 59 270 12.0 26.0 0.00 0.00 0.00 75 1037.4
20260906062435 60 247 21.0 24.0 0.00 0.00 0.00 74 1034.3
20260906061935 60 292 13.0 21.0 0.00 0.00 0.00 74 1028.0
20260906061435 60 270 12.0 14.0 0.00 0.00 0.00 76 1021.7
20260906061234 59 225 8.0 15.0 0.00 0.00 0.00 76 1031.2
20260906060935 59 270 8.0 19.0 0.00 0.00 0.00 75 1046.9
20260906060435 59 247 11.0 22.0 0.00 0.00 0.00 75 1013.6
20260906055935 58 270 12.0 28.0 0.00 0.00 0.00 75 1034.3
20260906055435 58 270 23.0 26.0 0.00 0.00 0.00 76 1034.3
20260906054935 58 315 6.0 28.0 0.00 0.00 0.00 76 1037.5
20260906054435 58 270 15.0 19.0 0.00 0.00 0.00 77 1018.5
20260906053934 58 247 19.0 21.0 0.00 0.00 0.00 77 1032.3
20260906053435 58 270 20.0 20.0 0.00 0.00 0.00 77 1032.4
20260906052935 58 247 11.0 23.0 0.00 0.00 0.00 77 1009.0
20260906052435 58 270 10.0 20.0 0.00 0.00 0.00 77 1015.3
20260906051935 58 270 16.0 19.0 0.00 0.00 0.00 78 1046.9
20260906051435 58 270 18.0 21.0 0.00 0.00 0.00 78 1040.6
20260906050935 58 270 21.0 26.0 0.00 0.00 0.00 78 1031.2
20260906050634 57 225 11.0 21.0 0.00 0.00 0.00 78 1060.6
20260906050435 58 270 4.0 25.0 0.00 0.00 0.00 78 1028.0
20260906045935 58 225 17.0 19.0 0.00 0.00 0.00 78 1040.6
20260906045435 58 270 18.0 25.0 0.00 0.00 0.00 79 1031.1
20260906044935 58 247 10.0 18.0 0.00 0.00 0.00 79 1037.3
20260906044435 57 270 13.0 20.0 0.00 0.00 0.00 79 1037.3
20260906043935 57 270 15.0 18.0 0.00 0.00 0.00 79 1032.9
20260906043435 57 270 17.0 26.0 0.00 0.00 0.00 79 1012.2
20260906043334 57 247 13.0 26.0 0.00 0.00 0.00 79 1038.0
20260906042935 57 247 5.0 19.0 0.00 0.00 0.00 79 1021.7
20260906042435 57 247 6.0 17.0 0.00 0.00 0.00 79 1037.4
20260906041935 57 90 5.0 17.0 0.00 0.00 0.00 80 1045.5
20260906041435 57 270 10.0 17.0 0.00 0.00 0.00 80 1040.6
20260906040935 57 225 6.0 21.0 0.00 0.00 0.00 80 1075.5
20260906040435 57 270 14.0 19.0 0.00 0.00 0.00 80 1031.2
20260906040034 57 270 11.0 21.0 0.00 0.00 0.00 80 991.6
20260906035935 57 270 17.0 21.0 0.00 0.00 0.00 80 1037.5
20260906035435 57 270 16.0 19.0 0.00 0.00 0.00 80 1070.9
20260906034935 57 247 12.0 17.0 0.00 0.00 0.00 80 1050.3
20260906034435 57 270 14.0 27.0 0.00 0.00 0.00 80 1011.4
20260906033935 57 292 18.0 23.0 0.00 0.00 0.00 81 1064.4
20260906033435 57 292 6.0 20.0 0.00 0.00 0.00 81 1042.1
20260906032935 57 270 11.0 17.0 0.00 0.00 0.00 81 1002.4
20260906032734 57 270 8.0 17.0 0.00 0.00 0.00 81 1053.4
20260906032435 57 270 10.0 24.0 0.00 0.00 0.00 81 1057.2
20260906031935 57 270 15.0 25.0 0.00 0.00 0.00 81 1040.8
20260906031435 57 270 10.0 19.0 0.00 0.00 0.00 81 1045.7
20260906030935 57 247 6.0 18.0 0.00 0.00 0.00 81 1060.4
20260906030435 57 270 12.0 17.0 0.00 0.00 0.00 81 1061.3
20260906025935 57 270 10.0 17.0 0.00 0.02 0.00 81 1046.4
20260906025434 57 270 11.0 15.0 0.00 0.02 0.00 81 1055.6
20260906024935 57 270 8.0 18.0 0.00 0.02 0.00 81 1039.0
20260906024435 57 292 10.0 21.0 0.00 0.02 0.00 81 1075.2
20260906023935 57 202 6.0 21.0 0.00 0.02 0.00 81 1057.9
20260906023435 57 225 10.0 19.0 0.00 0.02 0.00 81 1068.4
20260906022935 57 247 6.0 19.0 0.00 0.02 0.00 81 1085.0
20260906022435 58 270 18.0 19.0 0.00 0.02 0.00 81 1047.0
20260906022134 58 270 19.0 19.0 0.00 0.02 0.00 81 1022.1
20260906021935 58 292 14.0 21.0 0.00 0.02 0.00 81 1074.9
20260906021435 58 225 8.0 20.0 0.00 0.02 0.00 81 1062.3
20260906020935 57 270 3.0 20.0 0.00 0.02 0.00 81 1053.8
20260906020435 57 270 15.0 19.0 0.00 0.02 0.00 81 1053.0
20260906015935 58 292 2.0 14.0 0.00 0.02 0.00 81 1043.7
20260906015435 58 270 14.0 19.0 0.00 0.02 0.00 81 1034.3
20260906014935 57 202 19.0 23.0 0.00 0.02 0.00 82 1061.9
20260906014834 58 292 12.0 20.0 0.00 0.02 0.00 82 1067.4
20260906014435 58 247 20.0 20.0 0.00 0.02 0.00 82 1063.9
20260906013935 58 270 13.0 14.0 0.00 0.02 0.00 82 1050.6
20260906013435 58 270 6.0 19.0 0.00 0.02 0.00 82 1063.1
20260906012935 58 270 19.0 19.0 0.00 0.02 0.00 82 1033.8
20260906012435 58 270 7.0 15.0 0.00 0.02 0.00 82 1043.8
20260906011935 58 292 11.0 17.0 0.00 0.02 0.00 82 1060.4
20260906011534 58 270 17.0 17.0 0.00 0.02 0.00 82 1053.7
20260906011435 58 247 11.0 14.0 0.00 0.02 0.00 82 1062.3
20260906010935 58 292 9.0 14.0 0.00 0.02 0.00 82 1031.9
20260906010435 58 247 12.0 12.0 0.00 0.02 0.00 82 1062.4
20260906005935 58 225 12.0 17.0 0.00 0.02 0.00 82 1028.8
20260906005436 58 225 10.0 15.0 0.00 0.02 0.00 82 1061.4
20260906004935 58 247 7.0 15.0 0.00 0.02 0.00 82 1061.1
20260906004435 58 247 12.0 15.0 0.00 0.02 0.00 82 1061.3
20260906004234 57 225 11.0 15.0 0.00 0.02 0.00 82 1052.6
20260906003935 57 270 11.0 15.0 0.00 0.02 0.00 83 1055.0
20260906003436 57 292 12.0 13.0 0.00 0.02 0.00 83 1043.8
20260906002935 57 225 8.0 16.0 0.00 0.02 0.00 83 1056.4
20260906002436 57 270 12.0 14.0 0.00 0.02 0.00 83 1062.2
20260906001935 57 270 3.0 11.0 0.00 0.02 0.00 83 1066.4
20260906001435 57 270 4.0 10.0 0.00 0.02 0.00 83 1074.0
20260906000934 57 270 4.0 14.0 0.00 0.02 0.00 82 1031.1
20260906000435 57 270 6.0 12.0 0.00 0.02 0.00 82 1046.9
20260905235935 57 292 10.0 17.0 0.00 0.02 0.00 82 1077.6
20260905235435 57 270 11.0 14.0 0.00 0.02 0.00 82 1032.2
20260905234936 57 202 5.0 16.0 0.00 0.02 0.00 82 1053.2
20260905234436 57 270 6.0 18.0 0.00 0.02 0.00 82 1057.5
20260905233936 57 202 6.0 16.0 0.00 0.02 0.00 82 1014.2
20260905233635 57 202 9.0 16.0 0.00 0.02 0.00 82 1034.0
20260905233435 57 247 6.0 13.0 0.00 0.02 0.00 82 1089.4
20260905232936 57 270 9.0 18.0 0.00 0.02 0.00 82 1031.2
20260905232436 57 270 7.0 16.0 0.00 0.02 0.00 82 1069.0
20260905231936 57 270 11.0 13.0 0.00 0.02 0.00 82 1062.6
20260905231436 57 247 8.0 14.0 0.00 0.02 0.00 82 1046.9
20260905230936 57 292 5.0 15.0 0.00 0.02 0.00 83 1061.1
20260905230436 57 270 8.0 17.0 0.00 0.02 0.00 83 1068.2
20260905230335 57 270 11.0 17.0 0.00 0.02 0.00 83 1059.2
20260905225936 57 247 5.0 14.0 0.00 0.02 0.00 83 1048.5
20260905225436 57 270 5.0 16.0 0.00 0.02 0.00 83 1067.4
20260905224936 57 225 4.0 13.0 0.00 0.02 0.00 83 1078.4
20260905224436 57 247 8.0 13.0 0.00 0.02 0.00 83 1063.8
20260905223936 57 292 4.0 18.0 0.00 0.02 0.00 83 1023.0
20260905223436 57 202 9.0 16.0 0.00 0.02 0.00 83 1053.3
20260905223035 57 247 4.0 18.0 0.00 0.02 0.00 83 1039.6
20260905222936 57 270 2.0 18.0 0.00 0.02 0.00 83 1060.3
20260905222436 57 270 12.0 20.0 0.00 0.02 0.00 83 1047.8
20260905221936 57 270 7.0 17.0 0.00 0.02 0.00 83 1071.8
20260905221436 57 270 6.0 13.0 0.00 0.02 0.00 83 1049.7
20260905220936 57 270 11.0 14.0 0.00 0.02 0.00 83 1038.2
20260905220436 57 225 10.0 19.0 0.00 0.02 0.00 83 1062.1
20260905215936 57 225 11.0 22.0 0.00 0.02 0.00 83 1061.8
20260905215735 57 270 22.0 23.0 0.00 0.02 0.00 83 1042.1
20260905215436 57 247 11.0 23.0 0.00 0.02 0.00 83 1074.9
20260905214936 57 292 13.0 15.0 0.00 0.02 0.00 82 1052.9
20260905214436 57 270 10.0 16.0 0.00 0.02 0.00 82 1052.3
20260905213936 57 202 8.0 22.0 0.00 0.02 0.00 82 1059.5
20260905213436 57 202 4.0 19.0 0.00 0.02 0.00 82 1039.4
20260905212936 57 270 7.0 18.0 0.00 0.02 0.00 82 1068.6
20260905212435 57 292 4.0 11.0 0.00 0.02 0.00 82 1059.5
20260905211936 57 292 5.0 11.0 0.00 0.02 0.00 82 1028.7
20260905211436 57 292 8.0 15.0 0.00 0.02 0.00 82 1036.6
20260905210936 57 225 9.0 15.0 0.00 0.02 0.00 82 1058.8
20260905210436 57 225 10.0 13.0 0.00 0.02 0.00 82 1025.6
20260905205936 57 202 12.0 14.0 0.00 0.02 0.00 82 1061.1
20260905205436 57 225 14.0 14.0 0.00 0.02 0.00 81 1058.6
20260905205135 57 270 8.0 15.0 0.00 0.02 0.00 81 1059.9
20260905204936 57 202 3.0 15.0 0.00 0.02 0.00 81 1022.7
20260905204436 57 292 3.0 11.0 0.00 0.02 0.00 81 1030.8
20260905203936 57 270 3.0 12.0 0.00 0.02 0.00 81 997.2
20260905203436 58 270 3.0 14.0 0.00 0.02 0.00 81 1056.4
20260905202936 58 270 8.0 17.0 0.00 0.02 0.00 81 1020.9
20260905202436 58 270 12.0 15.0 0.00 0.02 0.00 81 1092.6
20260905202117 58 225 4.0 16.0 0.00 0.02 0.00 81 1048.5
20260905201936 58 225 4.0 16.0 0.00 0.02 0.00 81 1048.5
20260905201835 58 270 16.0 16.0 0.00 0.02 0.00 81 1057.9
20260905201436 58 247 9.0 19.0 0.00 0.02 0.00 81 1064.2
20260905200936 58 270 8.0 14.0 0.00 0.02 0.00 81 1039.1
20260905200436 58 292 9.0 14.0 0.00 0.02 0.00 81 1061.1
20260905195936 58 270 6.0 13.0 0.00 0.04 0.00 80 1052.7
20260905195436 58 292 6.0 12.0 0.00 0.04 0.00 80 1072.1
20260905194936 59 270 10.0 16.0 0.00 0.04 0.00 80 1078.1
20260905194535 59 247 8.0 14.0 0.00 0.04 0.00 79 983.8
20260905194436 59 315 2.0 14.0 0.00 0.04 0.00 79 1011.4
20260905193936 59 270 14.0 14.0 0.00 0.04 0.00 79 1067.1
20260905193436 59 225 7.0 14.0 0.00 0.04 0.00 77 1054.5
20260905192936 59 225 8.0 13.0 0.00 0.04 0.00 77 1064.2
20260905192436 59 247 3.0 20.0 0.00 0.04 0.00 76 1030.4
20260905191936 60 247 11.0 21.0 0.00 0.04 0.00 73 1040.4
20260905191436 61 270 15.0 16.0 0.00 0.04 0.00 70 1037.4
20260905191235 61 247 3.0 16.0 0.00 0.04 0.00 70 1062.4
20260905190936 61 270 9.0 16.0 0.00 0.04 0.00 69 1054.8
20260905190436 61 225 9.0 15.0 0.00 0.04 0.00 68 1064.3
20260905185936 61 202 10.0 10.0 0.00 0.08 0.00 68 1070.6
20260905185436 61 202 5.0 8.0 0.00 0.08 0.00 67 1081.6
20260905184936 61 202 2.0 9.0 0.00 0.08 0.00 67 1059.5
20260905184436 61 270 4.0 11.0 0.00 0.08 0.00 67 1053.6
20260905183935 62 247 5.0 10.0 0.00 0.08 0.00 67 1058.2
20260905183436 62 202 5.0 10.0 0.00 0.08 0.00 66 1063.9
20260905182936 62 270 10.0 14.0 0.00 0.08 0.00 66 1007.5
20260905182436 62 225 8.0 11.0 0.00 0.08 0.00 66 1067.4
20260905181936 62 247 7.0 10.0 0.00 0.08 0.00 66 1042.9
20260905181436 62 270 5.0 9.0 0.00 0.08 0.00 66 1051.7
20260905180936 62 292 4.0 14.0 0.00 0.08 0.00 66 1075.9
20260905180635 62 292 8.0 14.0 0.00 0.08 0.00 65 1040.6
20260905180436 62 292 10.0 14.0 0.00 0.08 0.00 65 1054.8
20260905175936 62 270 6.0 19.0 0.00 0.08 0.00 65 1003.6
20260905175436 62 225 8.0 21.0 0.00 0.08 0.00 65 1059.5
20260905174936 63 292 7.0 13.0 0.00 0.08 0.00 65 1065.8
20260905174436 63 270 6.0 19.0 0.00 0.08 0.00 64 1065.8
20260905173936 63 292 14.0 16.0 0.00 0.08 0.00 64 1053.2
20260905173436 63 292 7.0 15.0 0.00 0.08 0.00 64 1062.3
20260905173335 63 270 9.0 15.0 0.00 0.08 0.00 64 1059.5
20260905172936 63 225 4.0 11.0 0.00 0.08 0.00 64 982.3
20260905172436 63 270 6.0 12.0 0.00 0.08 0.00 64 1024.0
20260905171936 63 247 7.0 19.0 0.00 0.08 0.00 63 1030.3
20260905171436 64 270 7.0 13.0 0.00 0.08 0.00 63 1064.2
20260905170936 64 270 8.0 12.0 0.00 0.08 0.00 63 1070.8
20260905170436 64 270 4.0 17.0 0.00 0.08 0.00 62 1051.6
20260905170035 64 270 3.0 17.0 0.00 0.08 0.00 62 1037.7
20260905165936 64 202 7.0 14.0 0.00 0.08 0.00 62 1078.4
20260905165436 64 270 13.0 21.0 0.00 0.08 0.00 61 1046.9
20260905164936 65 247 13.0 16.0 0.00 0.08 0.00 60 1062.0
20260905164436 65 247 10.0 20.0 0.00 0.08 0.00 60 1053.2
20260905163936 65 247 11.0 19.0 0.00 0.08 0.00 60 1047.6
20260905163436 65 247 6.0 19.0 0.00 0.08 0.00 60 1075.2
20260905162936 64 247 14.0 18.0 0.00 0.08 0.00 61 1062.7
20260905162735 64 270 14.0 18.0 0.00 0.08 0.00 61 1070.6
20260905162436 64 270 9.0 12.0 0.00 0.08 0.00 60 1061.1
20260905161937 64 247 6.0 19.0 0.00 0.08 0.00 60 1015.2
20260905161436 64 270 12.0 20.0 0.00 0.08 0.00 59 1038.2
20260905160936 64 247 7.0 14.0 0.00 0.08 0.00 59 1075.2
20260905160436 65 247 7.0 18.0 0.00 0.08 0.00 58 1064.2
20260905155936 65 225 8.0 20.0 0.00 0.08 0.00 57 1035.0
20260905155435 66 247 12.0 18.0 0.00 0.08 0.00 57 1048.5
20260905154936 66 180 15.0 18.0 0.00 0.08 0.00 56 1054.8
20260905154436 66 225 17.0 24.0 0.00 0.08 0.00 55 1067.4
20260905153937 67 247 13.0 21.0 0.00 0.08 0.00 54 1069.0
20260905153436 67 292 6.0 21.0 0.00 0.08 0.00 55 1074.9
20260905152936 67 270 10.0 25.0 0.00 0.08 0.00 55 1078.4
20260905152436 67 270 16.0 20.0 0.00 0.08 0.00 56 1054.8
20260905152135 67 202 18.0 19.0 0.00 0.08 0.00 57 1076.8
20260905151936 67 202 12.0 19.0 0.00 0.08 0.00 57 1043.4
20260905151436 66 337 7.0 15.0 0.00 0.08 0.00 59 1086.3
20260905150937 66 225 8.0 24.0 0.00 0.08 0.00 59 1070.6
20260905150436 66 270 6.0 21.0 0.00 0.08 0.00 60 996.4
20260905145436 67 270 12.0 28.0 0.00 0.08 0.00 60 1075.4
20260905144936 68 270 13.0 27.0 0.00 0.08 0.00 58 1046.9
20260905144835 68 292 7.0 27.0 0.00 0.08 0.00 58 1076.9
20260905144436 69 292 23.0 23.0 0.00 0.08 0.00 54 1053.2
20260905143937 69 202 13.0 21.0 0.00 0.08 0.00 50 1053.2
20260905143436 70 270 15.0 22.0 0.00 0.08 0.00 50 1033.5
20260905142936 70 270 19.0 21.0 0.00 0.08 0.00 50 1065.8
20260905142436 70 202 5.0 23.0 0.00 0.08 0.00 50 1058.0
20260905141536 71 270 21.0 23.0 0.00 0.08 0.00 48 1079.9
20260905140936 71 315 8.0 19.0 0.00 0.08 0.00 47 1062.6
20260905140436 71 247 10.0 19.0 0.00 0.08 0.00 48 1062.6
20260905135936 72 292 7.0 19.0 0.00 0.08 0.00 47 1064.2
20260905135436 72 225 9.0 24.0 0.00 0.08 0.00 46 1080.0
20260905134937 73 270 12.0 24.0 0.00 0.08 0.00 47 1056.4
20260905134437 73 247 22.0 29.0 0.00 0.08 0.00 47 1058.0
20260905134236 72 202 18.0 20.0 0.00 0.08 0.00 48 1059.5
20260905133936 72 270 17.0 26.0 0.00 0.08 0.00 48 1076.8
20260905133437 71 45 6.0 17.0 0.00 0.08 0.00 49 1018.5
20260905132937 71 225 4.0 18.0 0.00 0.08 0.00 49 1073.7
20260905132437 71 270 11.0 19.0 0.00 0.08 0.00 48 1068.9
20260905131937 72 270 19.0 24.0 0.00 0.08 0.00 47 1080.4
20260905131437 72 247 18.0 20.0 0.00 0.08 0.00 47 1011.4
20260905130936 72 315 13.0 21.0 0.00 0.08 0.00 46 1045.7
20260905130437 72 247 12.0 21.0 0.00 0.08 0.00 46 1030.3
20260905125937 73 270 19.0 21.0 0.00 0.08 0.00 46 1076.5
20260905125437 73 270 17.0 23.0 0.00 0.08 0.00 45 1046.9
20260905124937 73 270 12.0 23.0 0.00 0.08 0.00 45 1045.7
20260905124523 72 270 17.0 23.0 0.00 0.08 0.00 46 1070.5
20260905124518 73 270 23.0 30.0 0.00 0.08 0.00 45 1067.1
20260905124437 73 270 23.0 30.0 0.00 0.08 0.00 45 1067.1
20260905123937 73 270 19.0 27.0 0.00 0.08 0.00 46 1081.5
20260905123636 72 270 10.0 23.0 0.00 0.08 0.00 46 1067.4
20260905123437 72 270 17.0 23.0 0.00 0.08 0.00 46 1070.5
20260905122937 71 202 17.0 30.0 0.00 0.08 0.00 46 1059.2
20260905122437 71 202 17.0 23.0 0.00 0.08 0.00 46 1089.4
20260905121937 71 90 7.0 28.0 0.00 0.08 0.00 47 1076.5
20260905121437 71 270 23.0 23.0 0.00 0.08 0.00 47 1085.2
20260905120937 71 270 21.0 29.0 0.00 0.08 0.00 46 1061.1
20260905120437 71 225 21.0 21.0 0.00 0.08 0.00 46 1070.5
20260905120336 71 247 16.0 25.0 0.00 0.08 0.00 45 1036.7
20260905115937 72 270 25.0 27.0 0.00 0.08 0.00 45 985.4
20260905114937 73 247 13.0 22.0 0.00 0.08 0.00 46 1073.7
20260905114437 73 180 9.0 23.0 0.00 0.08 0.00 46 1022.5
20260905113937 72 247 16.0 36.0 0.00 0.08 0.00 46 1061.8
20260905113437 73 292 12.0 22.0 0.00 0.08 0.00 46 1067.4
20260905113036 72 180 6.0 24.0 0.00 0.08 0.00 47 1042.9
20260905112937 72 225 18.0 24.0 0.00 0.08 0.00 47 985.4
20260905111938 71 292 9.0 25.0 0.00 0.08 0.00 46 1035.8
20260905111437 72 247 18.0 22.0 0.00 0.08 0.00 46 1056.4